When you browse on this site, cookies collect data to enhance your experience and personalize the content and advertising you see.
Visit our Privacy Policy to learn more. By continuing to use the site, you agree to this use of cookies and data.
  • In Germany
  • List of Countries
  • For 7 days
  • Water Temperature
  • Weather Map
  • Weather Widgets
  • user-avatar
    Login

    Hourly Weather Baklushina

    Today, 20 January, Monday

    Time Temperature Precipitation Wind Pressure Humidity
    00:00 -8°C° 0.2 mm 1 mps 741 mmHg 96%
    01:00 -8°C° 0.2 mm 1 mps 741 mmHg 96%
    02:00 -9°C° 0.2 mm 1 mps 741 mmHg 96%
    03:00 -9°C° 0.2 mm 1 mps 740 mmHg 96%
    04:00 -10°C° 0 mm 2 mps 741 mmHg 95%
    05:00 -10°C° 0.3 mm 2 mps 740 mmHg 95%
    06:00 -12°C° 0.3 mm 2 mps 740 mmHg 95%
    07:00 -13°C° 0.3 mm 3 mps 740 mmHg 94%
    08:00 -14°C° 0.3 mm 3 mps 740 mmHg 94%
    09:00 -14°C° 0.3 mm 3 mps 740 mmHg 94%
    10:00 -14°C° 0 mm 3 mps 741 mmHg 94%
    11:00 -14°C° 0.1 mm 3 mps 740 mmHg 93%
    12:00 -13°C° 0.1 mm 2 mps 740 mmHg 93%
    13:00 -13°C° 0.1 mm 2 mps 740 mmHg 92%
    14:00 -13°C° 0 mm 2 mps 740 mmHg 93%
    15:00 -14°C° 0 mm 2 mps 741 mmHg 94%
    16:00 -14°C° 0 mm 2 mps 741 mmHg 96%
    17:00 -15°C° 0 mm 2 mps 741 mmHg 96%
    18:00 -16°C° 0 mm 2 mps 741 mmHg 97%
    19:00 -16°C° 0 mm 2 mps 741 mmHg 97%
    20:00 -15°C° 0 mm 1 mps 740 mmHg 98%
    21:00 -16°C° 0 mm 1 mps 740 mmHg 98%
    22:00 -17°C° 0 mm 1 mps 740 mmHg 98%
    23:00 -17°C° 0 mm 1 mps 740 mmHg 99%

    Tomorrow, 21 January, Tuesday

    Time Temperature Precipitation Wind Pressure Humidity
    00:00 -18°C° 0 mm 1 mps 740 mmHg 99%
    01:00 -18°C° 0 mm 0 mps 739 mmHg 99%
    02:00 -18°C° 0 mm 0 mps 739 mmHg 99%
    03:00 -19°C° 0 mm 0 mps 739 mmHg 99%
    04:00 -19°C° 0 mm 0 mps 739 mmHg 99%
    05:00 -19°C° 0 mm 0 mps 739 mmHg 99%
    06:00 -19°C° 0 mm 1 mps 738 mmHg 99%
    07:00 -19°C° 0 mm 1 mps 738 mmHg 99%
    08:00 -18°C° 0 mm 1 mps 738 mmHg 98%
    09:00 -17°C° 0 mm 1 mps 737 mmHg 97%
    10:00 -16°C° 0 mm 1 mps 737 mmHg 97%
    11:00 -14°C° 0 mm 1 mps 737 mmHg 95%
    12:00 -14°C° 0 mm 2 mps 736 mmHg 94%
    13:00 -12°C° 0 mm 2 mps 735 mmHg 93%
    14:00 -13°C° 0 mm 2 mps 735 mmHg 94%
    15:00 -13°C° 0 mm 2 mps 735 mmHg 95%
    16:00 -13°C° 0 mm 2 mps 734 mmHg 96%
    17:00 -13°C° 0 mm 2 mps 733 mmHg 96%
    18:00 -13°C° 0 mm 2 mps 732 mmHg 96%
    19:00 -13°C° 0 mm 3 mps 731 mmHg 95%
    20:00 -12°C° 0 mm 3 mps 730 mmHg 94%
    21:00 -10°C° 0 mm 3 mps 730 mmHg 93%
    22:00 -11°C° 0 mm 4 mps 729 mmHg 92%
    23:00 -10°C° 0 mm 4 mps 728 mmHg 91%

    Day after tomorrow, 22 January, Wednesday

    Time Temperature Precipitation Wind Pressure Humidity
    00:00 -10°C° 0 mm 4 mps 727 mmHg 90%
    01:00 -11°C° 0 mm 5 mps 726 mmHg 90%
    02:00 -10°C° 0 mm 5 mps 725 mmHg 89%
    03:00 -10°C° 0 mm 5 mps 724 mmHg 89%
    04:00 -10°C° 0 mm 5 mps 724 mmHg 88%
    05:00 -10°C° 0.1 mm 5 mps 723 mmHg 88%
    06:00 -8°C° 0.1 mm 5 mps 722 mmHg 88%
    07:00 -8°C° 0.1 mm 5 mps 721 mmHg 88%
    08:00 -8°C° 0 mm 5 mps 720 mmHg 88%
    09:00 -8°C° 0 mm 5 mps 720 mmHg 88%
    10:00 -8°C° 0 mm 4 mps 720 mmHg 88%
    11:00 -8°C° 0 mm 4 mps 719 mmHg 87%
    12:00 -7°C° 0 mm 4 mps 719 mmHg 87%
    13:00 -7°C° 0 mm 4 mps 718 mmHg 87%
    14:00 -7°C° 0.1 mm 4 mps 718 mmHg 88%
    15:00 -6°C° 0.1 mm 3 mps 717 mmHg 90%
    16:00 -6°C° 0.1 mm 3 mps 717 mmHg 91%
    17:00 -7°C° 0 mm 3 mps 717 mmHg 92%
    18:00 -6°C° 0 mm 2 mps 716 mmHg 93%
    19:00 -7°C° 0 mm 2 mps 715 mmHg 94%
    20:00 -7°C° 0.1 mm 2 mps 715 mmHg 95%
    21:00 -7°C° 0.1 mm 2 mps 714 mmHg 95%
    22:00 -7°C° 0.1 mm 2 mps 714 mmHg 96%
    23:00 -6°C° 0.4 mm 2 mps 714 mmHg 95%

    23 January, Thursday

    Time Temperature Precipitation Wind Pressure Humidity
    00:00 -6°C° 0.4 mm 2 mps 713 mmHg 95%
    01:00 -7°C° 0.4 mm 3 mps 713 mmHg 95%
    02:00 -8°C° 0.1 mm 4 mps 713 mmHg 93%
    03:00 -10°C° 0.1 mm 5 mps 713 mmHg 90%
    04:00 -10°C° 0.1 mm 6 mps 713 mmHg 88%
    05:00 -10°C° 0.1 mm 6 mps 714 mmHg 88%
    06:00 -10°C° 0.1 mm 6 mps 714 mmHg 88%
    07:00 -10°C° 0.1 mm 6 mps 714 mmHg 89%
    08:00 -10°C° 0.1 mm 6 mps 715 mmHg 88%
    09:00 -10°C° 0.1 mm 6 mps 716 mmHg 87%
    10:00 -10°C° 0.1 mm 6 mps 716 mmHg 86%
    11:00 -10°C° 0 mm 6 mps 717 mmHg 85%
    12:00 -10°C° 0 mm 6 mps 718 mmHg 84%
    13:00 -11°C° 0 mm 7 mps 718 mmHg 84%
    14:00 -10°C° 0 mm 6 mps 719 mmHg 85%
    15:00 -11°C° 0 mm 6 mps 720 mmHg 86%
    16:00 -12°C° 0 mm 5 mps 721 mmHg 87%
    17:00 -12°C° 0 mm 5 mps 721 mmHg 88%
    18:00 -13°C° 0 mm 5 mps 722 mmHg 88%
    19:00 -14°C° 0 mm 5 mps 722 mmHg 89%
    20:00 -14°C° 0 mm 5 mps 723 mmHg 89%
    21:00 -14°C° 0 mm 4 mps 723 mmHg 89%
    22:00 -14°C° 0 mm 4 mps 724 mmHg 90%
    23:00 -14°C° 0 mm 4 mps 724 mmHg 90%

    24 January, Friday

    Time Temperature Precipitation Wind Pressure Humidity
    00:00 -14°C° 0 mm 4 mps 725 mmHg 90%
    01:00 -15°C° 0 mm 4 mps 725 mmHg 90%
    02:00 -15°C° 0 mm 4 mps 726 mmHg 90%
    03:00 -15°C° 0 mm 4 mps 726 mmHg 90%
    04:00 -15°C° 0 mm 4 mps 727 mmHg 90%
    05:00 -15°C° 0 mm 4 mps 727 mmHg 90%
    06:00 -15°C° 0 mm 4 mps 727 mmHg 90%
    07:00 -16°C° 0 mm 4 mps 728 mmHg 90%
    08:00 -16°C° 0 mm 4 mps 728 mmHg 89%
    09:00 -16°C° 0 mm 4 mps 729 mmHg 89%
    10:00 -17°C° 0 mm 4 mps 729 mmHg 89%
    11:00 -16°C° 0 mm 4 mps 730 mmHg 88%
    12:00 -16°C° 0 mm 4 mps 730 mmHg 88%
    13:00 -16°C° 0 mm 4 mps 731 mmHg 88%
    14:00 -16°C° 0 mm 4 mps 731 mmHg 88%
    15:00 -17°C° 0 mm 4 mps 731 mmHg 89%
    16:00 -17°C° 0 mm 4 mps 732 mmHg 90%
    17:00 -18°C° 0 mm 4 mps 732 mmHg 91%
    18:00 -19°C° 0 mm 4 mps 732 mmHg 92%
    19:00 -19°C° 0 mm 4 mps 733 mmHg 93%
    20:00 -19°C° 0 mm 4 mps 733 mmHg 92%
    21:00 -19°C° 0 mm 4 mps 733 mmHg 92%
    22:00 -20°C° 0 mm 4 mps 734 mmHg 92%
    23:00 -20°C° 0 mm 4 mps 734 mmHg 92%

    25 January, Saturday

    Time Temperature Precipitation Wind Pressure Humidity
    00:00 -20°C° 0 mm 4 mps 734 mmHg 92%
    01:00 -20°C° 0 mm 4 mps 734 mmHg 92%
    02:00 -19°C° 0 mm 4 mps 733 mmHg 92%
    03:00 -19°C° 0 mm 4 mps 733 mmHg 91%
    04:00 -18°C° 0 mm 4 mps 733 mmHg 91%
    05:00 -18°C° 0 mm 4 mps 732 mmHg 89%
    06:00 -18°C° 0 mm 5 mps 732 mmHg 88%
    07:00 -17°C° 0 mm 5 mps 732 mmHg 86%
    08:00 -17°C° 0 mm 5 mps 731 mmHg 86%
    09:00 -17°C° 0 mm 5 mps 731 mmHg 86%
    10:00 -17°C° 0 mm 5 mps 730 mmHg 86%
    11:00 -17°C° 0 mm 5 mps 730 mmHg 86%
    12:00 -15°C° 0 mm 5 mps 730 mmHg 86%
    13:00 -15°C° 0 mm 5 mps 729 mmHg 86%
    14:00 -15°C° 0 mm 4 mps 729 mmHg 87%
    15:00 -16°C° 0 mm 4 mps 729 mmHg 88%
    16:00 -15°C° 0 mm 3 mps 728 mmHg 89%
    17:00 -16°C° 0 mm 4 mps 728 mmHg 89%
    18:00 -16°C° 0 mm 4 mps 728 mmHg 90%
    19:00 -16°C° 0 mm 4 mps 728 mmHg 90%
    20:00 -15°C° 0 mm 4 mps 728 mmHg 90%
    21:00 -15°C° 0 mm 4 mps 728 mmHg 90%
    22:00 -15°C° 0 mm 4 mps 728 mmHg 90%
    23:00 -14°C° 0 mm 4 mps 728 mmHg 90%
    Show more